[[{"header":{"parameterUnit":"m.s-1","parameterCategory":1,"la1":30.2991,"la2":30.254,"lo1":-89.0895,"lo2":-89.0444,"dy":0.0017,"dx":0.0017,"nx":28,"ny":28,"refTime":"2024-06-14T09:00:00:Z","depth":0,"parameterNumber":2,"parameterNumberName":"U-component_of_WINDS"},"data":[0,0,0,0,0,0,0,0,0,0,0,0,0,0,0,0,0,0,0,0,0,0,0,0,0,0,0,0,0,0,0,0,0,0,0,0,0,0,0,0,0,0,0,0,0,0,0,0,0,0,0,0,0,0,0,0,0,0,0.2846,0.2847,0,0.2985,0.2987,0.2989,0.3076,0.3077,0.3077,0.3078,0.322,0.3224,0.3227,0,0,0,0,0,0,0,0,0,0,0,0,0,0.2654,0.2657,0.2846,0.2847,0.2849,0.2985,0.2987,0.2989,0.3076,0.3077,0.3077,0.3078,0.3219,0.3223,0.3227,0,0,0,0,0,0,0,0,0,0,0,0,0,0.2759,0.2658,0.2845,0.2909,0.2916,0.2985,0.2987,0.2989,0.3076,0.3077,0.3077,0.3078,0.3218,0.3223,0.3228,0.3244,0,0,0.3243,0.3245,0,0,0,0,0,0,0,0,0.2753,0.2766,0.2898,0.2905,0.2913,0.3014,0.2972,0.3075,0.3076,0.3015,0.3078,0.3079,0.3151,0.3162,0.3186,0.3251,0.3257,0.3244,0.3247,0.3249,0.325,0,0,0,0,0,0,0,0.2746,0.2761,0.2901,0.29,0.2909,0.293,0.2946,0.2992,0.3077,0.3021,0.3027,0.3043,0.3155,0.3181,0.319,0.3259,0.3243,0.3248,0.3251,0.3253,0.3343,0.3343,0,0,0,0,0,0,0.2729,0.2754,0.2896,0.2905,0.2833,0.2933,0.2951,0.2981,0.3077,0.3093,0.3042,0.3046,0.3172,0.3184,0.3196,0.3221,0.3249,0.3253,0.3256,0.3344,0.3343,0.3342,0,0,0,0,0,0,0.2724,0.274,0.2891,0.2832,0.2852,0.2936,0.2969,0.2983,0.3009,0.3093,0.3109,0.3053,0.3173,0.3189,0.3231,0.3227,0.3256,0.326,0.3345,0.3344,0.3343,0.327,0,0,0,0,0,0,0.2718,0.2738,0.2745,0.2831,0.2855,0.2924,0.2968,0.2985,0.3018,0.3025,0.3107,0.3122,0.3175,0.3223,0.3236,0.3234,0.3264,0.3345,0.3344,0.3343,0.3274,0.3267,0.3262,0,0,0,0,0,0.2711,0.272,0.2745,0.2762,0.2866,0.2924,0.2937,0.2999,0.3017,0.3025,0.3079,0.3119,0.3225,0.3227,0.3242,0.3242,0.3346,0.3344,0.3343,0.3276,0.3268,0.3262,0,0,0,0,0,0,0.2631,0.2732,0.2762,0.2798,0.2852,0.2938,0.295,0.2988,0.3038,0.3042,0.3116,0.3134,0.3169,0.321,0.321,0.3262,0.329,0.3292,0.3234,0.3227,0.3222,0.3211,0.3268,0,0,0,0,0,0.2618,0.2656,0.2742,0.2766,0.2792,0.2866,0.2893,0.2936,0.2994,0.3017,0.3074,0.3129,0.3175,0.3204,0.325,0.328,0.3299,0.3287,0.3281,0.3276,0.3276,0.3295,0.329,0.3338,0.3338,0.3338,0,0,0.2591,0.265,0.267,0.2752,0.2798,0.2836,0.2884,0.2923,0.2952,0.3023,0.3067,0.311,0.3177,0.3212,0.3231,0.3248,0.3267,0.3274,0.3269,0.3273,0.3293,0.3288,0.3284,0.3337,0.3337,0.3337,0,0,0.256,0.261,0.2635,0.268,0.275,0.2799,0.2805,0.2886,0.2918,0.2963,0.3017,0.3052,0.313,0.3175,0.3207,0.3193,0.3232,0.3207,0.3175,0.3192,0.3188,0.3186,0.318,0.3177,0.3207,0.3207,0.3206,0,0.2518,0.2577,0.2643,0.2678,0.2712,0.2778,0.2804,0.2845,0.2926,0.2948,0.2965,0.3063,0.3113,0.316,0.3156,0.3181,0.3189,0.3197,0.3184,0.3181,0.318,0.3175,0.3173,0.3203,0.3203,0.3204,0.3204,0,0.2521,0.2562,0.2574,0.265,0.2686,0.2716,0.2785,0.2813,0.2852,0.29,0.2944,0.3006,0.3066,0.308,0.3119,0.3133,0.3141,0.317,0.3199,0.317,0.3168,0.3166,0.3198,0.3199,0.32,0.3201,0,0,0.2445,0.2557,0.256,0.2595,0.2677,0.2709,0.2742,0.2801,0.2823,0.2877,0.2906,0.297,0.2997,0.3034,0.3079,0.3094,0.3078,0.3121,0.3124,0.3111,0.3097,0.3074,0.3071,0.3105,0.3105,0.3105,0.3091,0,0.2426,0.2489,0.2548,0.259,0.2628,0.2691,0.272,0.2772,0.2817,0.2856,0.2906,0.295,0.2983,0.3005,0.3023,0.3076,0.3076,0.3078,0.3132,0.3133,0.3113,0.307,0.3046,0.303,0.309,0.309,0.309,0,0.2413,0.2464,0.2508,0.2586,0.2604,0.2629,0.2687,0.2724,0.2785,0.2816,0.2857,0.2904,0.2942,0.2967,0.302,0.302,0.3045,0.3075,0.3076,0.3083,0.311,0.3075,0.3027,0.3024,0.3089,0.3089,0.3089,0,0.2352,0.2432,0.2469,0.2497,0.2588,0.2604,0.2643,0.2705,0.2736,0.2787,0.2808,0.2863,0.2893,0.2934,0.2994,0.3007,0.304,0.3071,0.3067,0.3066,0.3071,0.307,0.3026,0.3088,0.3088,0.3088,0.3088,0,0.2325,0.235,0.2443,0.2465,0.2495,0.2563,0.259,0.2634,0.2689,0.2721,0.2779,0.2808,0.2886,0.2924,0.2972,0.3008,0.3021,0.3048,0.306,0.3042,0.3039,0.306,0.3062,0.3088,0.3088,0.3088,0.3088,0,0.2262,0.2325,0.237,0.2452,0.2474,0.2492,0.2562,0.2587,0.2635,0.2675,0.2688,0.2763,0.2811,0.2876,0.2944,0.2976,0.3006,0.3025,0.2985,0.2992,0.2985,0.2984,0.2952,0.2951,0.3014,0.3013,0.3012,0,0.2241,0.2261,0.2346,0.2372,0.2409,0.2449,0.2482,0.2549,0.258,0.2651,0.2667,0.2719,0.2765,0.2838,0.2899,0.2951,0.2972,0.2958,0.2981,0.2962,0.2972,0.297,0.2972,0.2952,0.2951,0.295,0.2949,0,0.2196,0.2226,0.227,0.2325,0.2362,0.2408,0.2457,0.2475,0.2553,0.2585,0.2635,0.267,0.2739,0.279,0.285,0.2891,0.2932,0.2941,0.2943,0.2925,0.2901,0.2914,0.2969,0.2942,0.2942,0.2943,0.2943,0.2944,0.2153,0.2174,0.2237,0.2284,0.2328,0.2372,0.2399,0.245,0.2493,0.2554,0.2592,0.2639,0.27,0.2785,0.2823,0.2862,0.2878,0.2881,0.2882,0.2881,0.2875,0.2895,0.2873,0.2873,0.2874,0.2874,0.2874,0,0.2111,0.2154,0.2197,0.2263,0.23,0.2337,0.2393,0.2421,0.2463,0.2516,0.2559,0.2616,0.2666,0.273,0.2784,0.2803,0.2823,0.2815,0.2814,0.2822,0.2858,0.285,0.2797,0.2797,0.2797,0.2797,0.2797,0.2797,0.2093,0.213,0.2167,0.2227,0.227,0.2318,0.2346,0.2388,0.243,0.2491,0.2532,0.2574,0.2632,0.2691,0.2738,0.2756,0.2773,0.2758,0.2781,0.2813,0.282,0.2826,0.282,0.2761,0.2761,0.2743,0.2743,0.2743]},{"header":{"parameterUnit":"m.s-1","parameterCategory":1,"la1":30.2991,"la2":30.254,"lo1":-89.0895,"lo2":-89.0444,"dy":0.0017,"dx":0.0017,"nx":28,"ny":28,"refTime":"2024-06-14T09:00:00:Z","depth":0,"parameterNumber":3,"parameterNumberName":"V-component_of_WINDS"},"data":[0,0,0,0,0,0,0,0,0,0,0,0,0,0,0,0,0,0,0,0,0,0,0,0,0,0,0,0,0,0,0,0,0,0,0,0,0,0,0,0,0,0,0,0,0,0,0,0,0,0,0,0,0,0,0,0,0,0,0.697,0.6969,0,0.6822,0.682,0.6818,0.6748,0.6748,0.6748,0.6748,0.6591,0.6587,0.6583,0,0,0,0,0,0,0,0,0,0,0,0,0,0.719,0.7186,0.6971,0.6969,0.6967,0.6822,0.682,0.6818,0.6748,0.6748,0.6748,0.6748,0.6593,0.6588,0.6583,0,0,0,0,0,0,0,0,0,0,0,0,0,0.7073,0.7185,0.6971,0.6915,0.6908,0.6822,0.682,0.6817,0.6748,0.6748,0.6748,0.6748,0.6595,0.6588,0.6582,0.654,0,0,0.6562,0.656,0,0,0,0,0,0,0,0,0.708,0.7065,0.6925,0.6918,0.6911,0.6804,0.684,0.6724,0.6748,0.6809,0.6748,0.6749,0.6662,0.665,0.6621,0.6532,0.6526,0.6562,0.6558,0.6555,0.6553,0,0,0,0,0,0,0,0.7088,0.7071,0.6911,0.6923,0.6914,0.6895,0.6879,0.6817,0.6736,0.6803,0.6798,0.6782,0.6658,0.6628,0.6617,0.6523,0.6562,0.6556,0.6552,0.655,0.6392,0.6391,0,0,0,0,0,0,0.7106,0.7078,0.6916,0.6907,0.6998,0.6891,0.6873,0.6838,0.6737,0.6721,0.6782,0.6779,0.6639,0.6625,0.6611,0.6555,0.6555,0.6549,0.6546,0.6392,0.6392,0.6391,0,0,0,0,0,0,0.7111,0.7092,0.6922,0.6991,0.6968,0.6888,0.6849,0.6835,0.6805,0.672,0.6705,0.6766,0.6638,0.662,0.6558,0.6548,0.6546,0.6541,0.6392,0.6392,0.6391,0.6442,0,0,0,0,0,0,0.7118,0.7094,0.7078,0.6991,0.6965,0.6873,0.6848,0.6832,0.6794,0.6789,0.6701,0.6687,0.6637,0.6568,0.6552,0.654,0.6536,0.6393,0.6392,0.6392,0.6441,0.6443,0.6445,0,0,0,0,0,0.7126,0.7098,0.7078,0.7059,0.6943,0.6873,0.6857,0.6801,0.6794,0.6776,0.6722,0.669,0.6553,0.6563,0.6544,0.6529,0.6393,0.6392,0.6392,0.644,0.6443,0.6445,0,0,0,0,0,0,0.7184,0.7085,0.7062,0.7005,0.6948,0.6861,0.6837,0.6806,0.6749,0.6746,0.6678,0.6659,0.6603,0.656,0.6573,0.6483,0.647,0.6465,0.6513,0.6515,0.6517,0.6528,0.653,0,0,0,0,0,0.719,0.7142,0.7058,0.7016,0.6989,0.6918,0.6885,0.6848,0.6785,0.676,0.6701,0.664,0.6583,0.6547,0.649,0.6435,0.6414,0.6415,0.6418,0.642,0.6416,0.6384,0.6383,0.6388,0.6389,0.6389,0,0,0.7202,0.7143,0.7116,0.7026,0.6978,0.6928,0.6898,0.6847,0.681,0.6751,0.6689,0.6644,0.6572,0.6513,0.6484,0.6475,0.6411,0.6419,0.6421,0.6416,0.6383,0.6383,0.6382,0.6388,0.6388,0.6388,0,0,0.72,0.715,0.711,0.7062,0.6989,0.6942,0.6933,0.685,0.6819,0.6756,0.6711,0.6665,0.6568,0.6518,0.648,0.646,0.6428,0.6443,0.6455,0.6424,0.6423,0.6423,0.6415,0.6413,0.644,0.644,0.644,0,0.7224,0.7149,0.7093,0.7044,0.7006,0.6953,0.6911,0.6866,0.6778,0.6752,0.6744,0.6622,0.6569,0.6498,0.6494,0.6465,0.6451,0.6452,0.6428,0.6427,0.6425,0.6417,0.6414,0.6443,0.6442,0.6442,0.6442,0,0.7182,0.7131,0.7107,0.7025,0.6984,0.6939,0.6874,0.6839,0.6805,0.6759,0.6696,0.6631,0.656,0.654,0.6506,0.6464,0.6461,0.6442,0.6427,0.6428,0.6419,0.6416,0.6446,0.6445,0.6444,0.6444,0,0,0.7211,0.7099,0.7091,0.7053,0.6969,0.6928,0.688,0.6812,0.6783,0.6724,0.6682,0.6602,0.6584,0.6541,0.6501,0.6474,0.6461,0.6457,0.6454,0.646,0.6411,0.6425,0.6423,0.644,0.6439,0.6438,0.6416,0,0.7196,0.711,0.7058,0.6992,0.6944,0.6893,0.6852,0.6795,0.6751,0.6703,0.6653,0.6598,0.6578,0.6552,0.6523,0.6469,0.645,0.647,0.6398,0.6397,0.6418,0.6418,0.6433,0.6416,0.6413,0.6412,0.6412,0,0.7167,0.7111,0.7041,0.6963,0.6941,0.6905,0.6838,0.6793,0.6728,0.6697,0.6651,0.661,0.6557,0.6548,0.6473,0.6487,0.6455,0.6424,0.6422,0.6412,0.6404,0.6408,0.6409,0.6406,0.6406,0.6406,0.6406,0,0.7194,0.7101,0.7048,0.7017,0.6924,0.69,0.686,0.6795,0.6758,0.6699,0.6674,0.661,0.6575,0.6525,0.6469,0.6467,0.6399,0.6385,0.6371,0.6373,0.6358,0.636,0.6354,0.6339,0.6339,0.6339,0.6339,0,0.7183,0.7142,0.7059,0.7026,0.6978,0.6918,0.6873,0.6828,0.6771,0.6727,0.6679,0.6639,0.6567,0.6518,0.6473,0.6417,0.6402,0.6375,0.6363,0.6379,0.6382,0.6356,0.6355,0.6339,0.6339,0.6339,0.6339,0,0.7205,0.7148,0.7086,0.7004,0.6982,0.6951,0.688,0.6845,0.68,0.6745,0.6729,0.6656,0.6595,0.6534,0.6452,0.6422,0.6367,0.6352,0.639,0.6383,0.6373,0.6375,0.6349,0.6342,0.6334,0.6334,0.6334,0,0.7201,0.7169,0.7084,0.7052,0.7014,0.6963,0.6925,0.6865,0.6827,0.6751,0.6725,0.6662,0.6607,0.6513,0.6452,0.6389,0.6371,0.6366,0.6361,0.6378,0.637,0.6372,0.6368,0.6368,0.6369,0.6369,0.6369,0,0.72,0.7174,0.7122,0.706,0.7017,0.6964,0.6911,0.6887,0.6816,0.6776,0.6714,0.6673,0.659,0.6527,0.6457,0.6414,0.6379,0.6372,0.6365,0.638,0.6403,0.639,0.6395,0.6372,0.6372,0.6372,0.6372,0.6371,0.7208,0.7177,0.7113,0.7057,0.701,0.6961,0.6925,0.6875,0.6823,0.6752,0.6719,0.6658,0.6592,0.6495,0.6453,0.6403,0.6394,0.6384,0.6381,0.638,0.6383,0.6413,0.639,0.639,0.639,0.639,0.6389,0,0.7204,0.7161,0.711,0.7037,0.6992,0.6966,0.6905,0.6869,0.6816,0.6759,0.6707,0.6636,0.6575,0.651,0.6445,0.6417,0.64,0.6402,0.6403,0.6394,0.6396,0.6408,0.6417,0.6417,0.6417,0.6417,0.6417,0.6417,0.7197,0.7143,0.7109,0.7031,0.6987,0.6928,0.6895,0.6849,0.6804,0.6728,0.6677,0.6636,0.6575,0.6505,0.6448,0.643,0.6408,0.6415,0.6392,0.6395,0.6393,0.6391,0.6402,0.6411,0.6411,0.6394,0.6394,0.6394]}]]